This demonstration page uses our WeatherBlox Daily Observations layout. Learn more.

Left ArrowRight Arrow

34.74481, -87.66753

Hourly Observations for April 13, 2017

Temp ( °F °C ) Dew Point ( °F °C ) Humidity (%) Winds ( mph kmh ) Pressure ( in mb ) Visibility ( mi km ) Precip ( " mm )
12:53 am 00:53 Clear 56 13.3 51 10.6 84 84 Calm 30.24 1024 10 16 0.00 0.00
1:53 am 01:53 Clear 55 12.8 52 11.1 90 90 Calm 30.23 1024 10 16 0.00 0.00
2:53 am 02:53 Clear 56 13.3 48 8.9 75 75 WNW 3 6 30.23 1024 10 16 0.00 0.00
3:53 am 03:53 Clear 54 12.2 48 8.9 80 80 Calm 30.24 1024 10 16 0.00 0.00
4:53 am 04:53 Clear 51 10.6 47 8.3 86 86 Calm 30.24 1024 10 16 0.00 0.00
5:53 am 05:53 Clear 51 10.6 48 8.9 89 89 Calm 30.24 1024 9 14 0.00 0.00
6:53 am 06:53 Sunny with Mist and Fog 53 11.7 49 9.4 86 86 Calm 30.27 1025 6 10 0.00 0.00
7:53 am 07:53 Sunny 60 15.6 54 12.2 80 80 Calm 30.28 1025 9 14 0.00 0.00
8:53 am 08:53 Sunny 65 18.3 51 10.6 61 61 Calm 30.28 1025 10 16 0.00 0.00
9:53 am 09:53 Sunny 71 21.7 52 11.1 51 51 Calm 30.29 1026 10 16 0.00 0.00
10:53 am 10:53 Sunny 77 25 50 10 39 39 Calm 30.28 1025 10 16 0.00 0.00
11:53 am 11:53 Sunny 81 27.2 51 10.6 35 35 Calm 30.26 1025 10 16 0.00 0.00
12:53 pm 12:53 Sunny 82 27.8 50 10 33 33 E 5 7 30.24 1024 10 16 0.00 0.00
1:53 pm 13:53 Sunny 84 28.9 50 10 31 31 Calm 30.22 1023 10 16 0.00 0.00
2:53 pm 14:53 Sunny 85 29.4 47 8.3 27 27 VRB 5 7 30.18 1022 10 16 0.00 0.00
3:53 pm 15:53 Sunny 86 30 46 7.8 25 25 VRB 3 6 30.17 1022 10 16 0.00 0.00
4:53 pm 16:53 Sunny 85 29.4 45 7.2 25 25 SSW 5 7 30.16 1021 10 16 0.00 0.00
5:53 pm 17:53 Sunny 83 28.3 49 9.4 31 31 ESE 3 6 30.16 1021 10 16 0.00 0.00
6:53 pm 18:53 Sunny 77 25 52 11.1 42 42 Calm 30.16 1021 10 16 0.00 0.00
7:53 pm 19:53 Clear 69 20.6 54 12.2 59 59 Calm 30.17 1022 10 16 0.00 0.00
8:53 pm 20:53 Clear 65 18.3 54 12.2 68 68 Calm 30.18 1022 10 16 0.00 0.00
9:53 pm 21:53 Clear 64 17.8 54 12.2 70 70 Calm 30.18 1022 10 16 0.00 0.00
10:53 pm 22:53 Clear 62 16.7 54 12.2 75 75 Calm 30.18 1022 10 16 0.00 0.00
11:53 pm 23:53 Clear 61 16.1 54 12.2 78 78 Calm 30.17 1022 10 16 0.00 0.00

Powered by AerisWeather